Satellite-Ground Cal/Val Site Overpasses Predictions

Prediction of Satellite NPP Overpassing Cal/Val Site: Antarctic Dome C

Ground Cal/Val Site Location: Latitude: -75.10, Longitude: 123.35; Satellite-Ground Site NADIR distance within 100 km.

Table of predicted overpasses for the next 14.0 days since TLE Epoch: 3/1/2012
Interval Starting Time Ending Time Minimum Distance Time Minimum Distance (km)
1 03/04/2012 14:54:14 03/04/2012 14:54:43 03/04/2012 14:54:28 20.32
2 03/05/2012 14:35:33 03/05/2012 14:35:47 03/05/2012 14:35:40 86.75
3 03/06/2012 07:37:05 03/06/2012 07:37:31 03/06/2012 07:37:18 39.43
4 03/07/2012 07:18:19 03/07/2012 07:18:39 03/07/2012 07:18:29 70.42
5 03/09/2012 15:00:35 03/09/2012 15:00:58 03/09/2012 15:00:46 57.82
6 03/10/2012 14:41:44 03/10/2012 14:42:09 03/10/2012 14:41:57 51.46
7 03/11/2012 07:43:26 03/11/2012 07:43:45 03/11/2012 07:43:36 75.03
8 03/12/2012 07:24:33 03/12/2012 07:25:01 03/12/2012 07:24:47 32.72
9 03/14/2012 15:07:01 03/14/2012 15:07:09 03/14/2012 15:07:05 95.94


NCC Satellite Cal/Val Overpasses Prediction Service
